User: anonymous   Login
Location: Albany
(35.0000°S, 118.0000°E)
Time: 08:39:37
(UTC-04:00)
Language:

Cosmos 1346 Rocket - Orbit

View from above orbital plane
View from above orbital plane
View from above satellite
View from above satellite

Ground track
Ground track

The orbit data is extracted from the following two-line orbital elements,

1 13121U 82027B   18113.97894171 +.00000438 +00000-0 +26293-4 0  9998
2 13121 081.1665 122.1066 0028415 223.7604 136.1369 15.08543087963546
Epoch (UTC): 23 April 2018 23:29:40
Eccentricity: 0.0028415
inclination: 81.1665°
perigee height: 521 km
apogee height: 560 km
right ascension of ascending node: 122.1066°
argument of perigee: 223.7604°
revolutions per day: 15.08543087
mean anomaly at epoch: 136.1369°
orbit number at epoch: 96354

The dashed part of the orbit path shows where the satellite is in the earth's shadow,  

DLR